Weather History for KPNC - October, 2013

Change the Weather History Date:

Tuesday, October 15, 2013

  Actual Average Record
Temperature  
Mean Temperature 54 °F -  
Max Temperature 62 °F 71 °F 92 °F (1962)
Min Temperature 46 °F 48 °F 31 °F (1952)
Degree Days  
Heating Degree Days 11    
Growing Degree Days 4 (Base 50)    
Moisture  
Dew Point 47 °F    
Average Humidity 74    
Maximum Humidity 94    
Minimum Humidity 46    
Precipitation  
Precipitation 0.55 in - - ()
Sea Level Pressure  
Sea Level Pressure 30.01 in    
Wind  
Wind Speed 12 mph (North)    
Max Wind Speed 23 mph    
Max Gust Speed 29 mph    
Visibility 8 miles    
Events Rain , Thunderstorm    
Averages and records for this station are not official NWS values.
T = Trace of Precipitation, MM = Missing Value Source: NWS Daily Summary

Daily Weather History Graph

Daily Weather History Graph

Search for Another Location

Airport or City:

Trip Planner

Search our weather history database for the weather conditions in past years. The results will help you decide how hot, cold, wet, or windy it might be!

Date:

Astronomy

Oct. 15, 2013 Rise Set
Actual Time 7:36 AM CDT 6:51 PM CDT
Civil Twilight 7:09 AM CDT 7:17 PM CDT
Nautical Twilight 6:39 AM CDT 7:47 PM CDT
Astronomical Twilight 6:09 AM CDT 8:17 PM CDT
Moon 4:53 PM CDT (10/15) 4:05 AM CDT (10/15)
Length of Visible Light 12h 07m
Length of Day
11h 15m
Waxing Gibbous, 88% of the Moon is Illuminated
Oct 15
Waxing Gibbous
Oct 18
Full
Oct 26
Last Quarter
Nov 3
New
Nov 9
First Quarter

Hourly Weather History & Observations

Time (CDT) Temp. Windchill Dew Point Humidity Pressure Visibility Wind Dir Wind Speed Gust Speed Precip Events Conditions
12:27 AM 60.8 °F - 59.0 °F 94% 29.88 in 2.5 mi North 23.0 mph 28.8 mph 0.07 in Rain Heavy Rain
12:35 AM 60.8 °F - 59.0 °F 94% 29.89 in 2.5 mi North 11.5 mph 28.8 mph 0.09 in Rain Rain
12:38 AM 60.8 °F - 57.2 °F 88% 29.90 in 3.0 mi North 11.5 mph - 0.10 in Rain Rain
12:53 AM 60.1 °F - 57.9 °F 93% 29.90 in 2.0 mi North 6.9 mph - 0.24 in Rain Heavy Rain
1:05 AM 60.8 °F - 57.2 °F 88% 29.90 in 9.0 mi NNE 16.1 mph 20.7 mph 0.01 in Rain Light Rain
1:15 AM 60.8 °F - 57.2 °F 88% 29.90 in 10.0 mi NE 15.0 mph - 0.02 in Rain , Thunderstorm Light Rain
1:32 AM 59.0 °F - 55.4 °F 88% 29.93 in 2.5 mi NNE 9.2 mph - 0.20 in Rain , Thunderstorm Heavy Rain
1:41 AM 59.0 °F - 55.4 °F 88% 29.92 in 3.0 mi NNE 10.4 mph - 0.26 in Rain , Thunderstorm Thunderstorms and Rain
1:53 AM 59.0 °F - 57.0 °F 93% 29.92 in 9.0 mi North 6.9 mph - 0.27 in Rain Rain
2:53 AM 59.0 °F - 55.9 °F 90% 29.93 in 10.0 mi North 8.1 mph - 0.04 in Rain Light Rain
3:53 AM 55.9 °F - 51.1 °F 84% 29.95 in 10.0 mi NNW 16.1 mph 24.2 mph 0.00 in   Mostly Cloudy
4:53 AM 53.1 °F - 46.9 °F 80% 29.97 in 10.0 mi NNW 12.7 mph - N/A   Clear
5:53 AM 51.1 °F - 45.0 °F 80% 29.99 in 10.0 mi NNW 10.4 mph - N/A   Clear
6:53 AM 50.0 °F - 44.1 °F 80% 30.02 in 10.0 mi NNW 9.2 mph - N/A   Clear
7:53 AM 48.9 °F - 43.0 °F 80% 30.04 in 10.0 mi NNW 8.1 mph - N/A   Clear
8:53 AM 48.9 °F - 42.1 °F 77% 30.06 in 10.0 mi NNW 8.1 mph - N/A   Clear
9:53 AM 51.1 °F - 41.0 °F 68% 30.09 in 10.0 mi NNW 13.8 mph 19.6 mph N/A   Clear
10:53 AM 53.1 °F - 41.0 °F 64% 30.09 in 10.0 mi NNW 16.1 mph 25.3 mph N/A   Clear
11:53 AM 55.0 °F - 41.0 °F 59% 30.10 in 10.0 mi NNW 13.8 mph 18.4 mph N/A   Clear
12:53 PM 57.0 °F - 41.0 °F 55% 30.09 in 10.0 mi NNW 8.1 mph - N/A   Clear
1:53 PM 59.0 °F - 39.9 °F 49% 30.07 in 10.0 mi NW 11.5 mph - N/A   Clear
2:53 PM 61.0 °F - 39.9 °F 46% 30.04 in 10.0 mi NNW 13.8 mph 19.6 mph N/A   Clear
3:53 PM 62.1 °F - 41.0 °F 46% 30.05 in 10.0 mi NW 11.5 mph 18.4 mph N/A   Clear
4:53 PM 60.1 °F - 39.9 °F 47% 30.04 in 10.0 mi NW 12.7 mph - N/A   Clear
5:53 PM 59.0 °F - 39.9 °F 49% 30.05 in 10.0 mi NNW 8.1 mph - N/A   Clear
6:53 PM 55.9 °F - 42.1 °F 60% 30.06 in 10.0 mi NNW 3.5 mph - N/A   Clear
7:53 PM 53.1 °F - 43.0 °F 69% 30.09 in 10.0 mi NNW 4.6 mph - N/A   Clear
8:53 PM 50.0 °F - 43.0 °F 77% 30.10 in 10.0 mi Calm Calm - N/A   Mostly Cloudy
9:53 PM 48.9 °F - 42.1 °F 77% 30.13 in 10.0 mi NNW 4.6 mph - N/A   Partly Cloudy
10:53 PM 46.0 °F 41.9 °F 39.9 °F 79% 30.14 in 10.0 mi North 8.1 mph - N/A   Partly Cloudy
11:53 PM 46.0 °F 43.9 °F 39.9 °F 79% 30.15 in 10.0 mi North 4.6 mph - N/A   Clear